• In Netherlands
  • List of Countries
  • For 7 days
  • Water Temperature
  • Satellite Maps
  • Weather Map
  • Weather Widgets
  • user-avatar
    Login

    Hourly Weather Mayrhofen

    Today, 28 March, Tuesday

    Time Temperature Precipitation Wind Pressure Humidity
    00:00 -1°C° 0 mm 1 mps 618 mmHg 94%
    01:00 -1°C° 0 mm 1 mps 618 mmHg 94%
    02:00 -1°C° 0 mm 1 mps 618 mmHg 93%
    03:00 -1°C° 0 mm 1 mps 617 mmHg 93%
    04:00 -2°C° 0 mm 1 mps 617 mmHg 93%
    05:00 -1°C° 0 mm 1 mps 618 mmHg 91%
    06:00 -1°C° 0 mm 1 mps 618 mmHg 89%
    07:00 +1°C° 0 mm 1 mps 619 mmHg 83%
    08:00 +3°C° 0 mm 1 mps 620 mmHg 80%
    09:00 +4°C° 0 mm 0 mps 621 mmHg 78%
    10:00 +7°C° 0 mm 0 mps 621 mmHg 75%
    11:00 +7°C° 0 mm 0 mps 622 mmHg 73%
    12:00 +9°C° 0 mm 1 mps 622 mmHg 72%
    13:00 +9°C° 0 mm 1 mps 622 mmHg 70%
    14:00 +9°C° 0 mm 1 mps 622 mmHg 72%
    15:00 +9°C° 0 mm 1 mps 621 mmHg 75%
    16:00 +8°C° 0 mm 1 mps 621 mmHg 77%
    17:00 +6°C° 0 mm 1 mps 621 mmHg 82%
    18:00 +5°C° 0 mm 1 mps 620 mmHg 88%
    19:00 +3°C° 0 mm 1 mps 619 mmHg 93%
    20:00 +3°C° 0 mm 1 mps 620 mmHg 94%
    21:00 +2°C° 0 mm 1 mps 620 mmHg 95%
    22:00 +2°C° 0 mm 1 mps 620 mmHg 95%
    23:00 +2°C° 0 mm 1 mps 620 mmHg 95%

    Tomorrow, 29 March, Wednesday

    Time Temperature Precipitation Wind Pressure Humidity
    00:00 +2°C° 0 mm 1 mps 621 mmHg 95%
    01:00 +2°C° 0 mm 1 mps 621 mmHg 96%
    02:00 +2°C° 0 mm 1 mps 621 mmHg 96%
    03:00 +2°C° 0 mm 1 mps 621 mmHg 96%
    04:00 +1°C° 0 mm 1 mps 621 mmHg 96%
    05:00 +2°C° 0 mm 1 mps 621 mmHg 95%
    06:00 +2°C° 0 mm 1 mps 621 mmHg 95%
    07:00 +2°C° 0 mm 1 mps 621 mmHg 94%
    08:00 +4°C° 0 mm 1 mps 622 mmHg 88%
    09:00 +5°C° 0 mm 1 mps 623 mmHg 83%
    10:00 +7°C° 0 mm 1 mps 623 mmHg 78%
    11:00 +8°C° 0 mm 1 mps 623 mmHg 75%
    12:00 +8°C° 0 mm 1 mps 623 mmHg 72%
    13:00 +9°C° 0 mm 1 mps 623 mmHg 70%
    14:00 +9°C° 0 mm 1 mps 623 mmHg 70%
    15:00 +9°C° 0 mm 1 mps 623 mmHg 71%
    16:00 +9°C° 0 mm 1 mps 622 mmHg 72%
    17:00 +7°C° 0 mm 1 mps 622 mmHg 79%
    18:00 +5°C° 0 mm 1 mps 621 mmHg 86%
    19:00 +3°C° 0 mm 1 mps 621 mmHg 93%
    20:00 +3°C° 0 mm 1 mps 621 mmHg 94%
    21:00 +2°C° 0 mm 1 mps 621 mmHg 94%
    22:00 +2°C° 0 mm 1 mps 622 mmHg 95%
    23:00 +1°C° 0 mm 1 mps 621 mmHg 95%

    Day after tomorrow, 30 March, Thursday

    Time Temperature Precipitation Wind Pressure Humidity
    00:00 0°C° 0 mm 1 mps 621 mmHg 95%
    01:00 0°C° 0 mm 1 mps 621 mmHg 95%
    02:00 -1°C° 0 mm 1 mps 620 mmHg 94%
    03:00 -1°C° 0 mm 1 mps 620 mmHg 93%
    04:00 -1°C° 0 mm 1 mps 620 mmHg 92%
    05:00 0°C° 0 mm 1 mps 620 mmHg 88%
    06:00 +1°C° 0 mm 1 mps 621 mmHg 84%
    07:00 +1°C° 0 mm 0 mps 621 mmHg 79%
    08:00 +3°C° 0 mm 0 mps 622 mmHg 72%
    09:00 +7°C° 0 mm 1 mps 623 mmHg 64%
    10:00 +9°C° 0 mm 1 mps 624 mmHg 57%
    11:00 +10°C° 0 mm 1 mps 624 mmHg 55%
    12:00 +11°C° 0 mm 1 mps 624 mmHg 53%
    13:00 +12°C° 0 mm 1 mps 624 mmHg 51%
    14:00 +12°C° 0 mm 1 mps 624 mmHg 54%
    15:00 +11°C° 0 mm 1 mps 624 mmHg 56%
    16:00 +11°C° 0 mm 1 mps 623 mmHg 58%
    17:00 +8°C° 0 mm 1 mps 622 mmHg 68%
    18:00 +5°C° 0 mm 1 mps 621 mmHg 79%
    19:00 +2°C° 0 mm 1 mps 619 mmHg 89%
    20:00 +2°C° 0 mm 1 mps 620 mmHg 89%
    21:00 +2°C° 0 mm 1 mps 620 mmHg 90%
    22:00 +2°C° 0 mm 1 mps 620 mmHg 90%
    23:00 +2°C° 0 mm 1 mps 620 mmHg 90%

    31 March, Friday

    Time Temperature Precipitation Wind Pressure Humidity
    00:00 +2°C° 0 mm 1 mps 620 mmHg 91%
    01:00 +1°C° 0 mm 2 mps 620 mmHg 91%
    02:00 +1°C° 0 mm 2 mps 620 mmHg 92%
    03:00 +1°C° 0 mm 2 mps 620 mmHg 92%
    04:00 +1°C° 0 mm 2 mps 619 mmHg 93%
    05:00 +1°C° 0 mm 2 mps 619 mmHg 92%
    06:00 +1°C° 0 mm 2 mps 619 mmHg 92%
    07:00 +2°C° 0 mm 2 mps 619 mmHg 91%
    08:00 +4°C° 0 mm 2 mps 620 mmHg 82%
    09:00 +6°C° 0 mm 2 mps 620 mmHg 72%
    10:00 +8°C° 0 mm 2 mps 621 mmHg 63%
    11:00 +9°C° 0 mm 2 mps 621 mmHg 60%
    12:00 +10°C° 0 mm 2 mps 621 mmHg 56%
    13:00 +12°C° 0 mm 2 mps 621 mmHg 53%
    14:00 +12°C° 0 mm 2 mps 620 mmHg 55%
    15:00 +10°C° 0 mm 2 mps 620 mmHg 58%
    16:00 +10°C° 0 mm 2 mps 619 mmHg 60%
    17:00 +7°C° 0 mm 2 mps 618 mmHg 71%
    18:00 +5°C° 0 mm 2 mps 617 mmHg 82%
    19:00 +2°C° 0 mm 2 mps 616 mmHg 93%
    20:00 +2°C° 0 mm 2 mps 616 mmHg 93%
    21:00 +2°C° 0 mm 2 mps 616 mmHg 93%
    22:00 +2°C° 0 mm 2 mps 617 mmHg 93%
    23:00 +2°C° 0 mm 2 mps 616 mmHg 93%

    1 April, Saturday

    Time Temperature Precipitation Wind Pressure Humidity
    00:00 +1°C° 0 mm 2 mps 616 mmHg 93%
    01:00 +1°C° 0 mm 2 mps 616 mmHg 93%
    02:00 +1°C° 0 mm 2 mps 616 mmHg 93%
    03:00 +1°C° 0 mm 2 mps 615 mmHg 93%
    04:00 -1°C° 0 mm 2 mps 615 mmHg 93%
    05:00 +1°C° 0 mm 2 mps 615 mmHg 91%
    06:00 +1°C° 0 mm 2 mps 615 mmHg 89%
    07:00 +1°C° 0 mm 2 mps 615 mmHg 87%
    08:00 +3°C° 0 mm 2 mps 616 mmHg 78%
    09:00 +5°C° 0 mm 2 mps 617 mmHg 70%
    10:00 +7°C° 0 mm 2 mps 617 mmHg 61%
    11:00 +8°C° 0 mm 2 mps 617 mmHg 59%
    12:00 +8°C° 0 mm 2 mps 617 mmHg 57%
    13:00 +9°C° 0 mm 2 mps 617 mmHg 55%
    14:00 +9°C° 0.3 mm 2 mps 617 mmHg 58%
    15:00 +8°C° 0.3 mm 2 mps 616 mmHg 61%
    16:00 +8°C° 0.3 mm 2 mps 616 mmHg 64%
    17:00 +6°C° 0.3 mm 2 mps 615 mmHg 73%
    18:00 +3°C° 0.3 mm 2 mps 614 mmHg 81%
    19:00 +2°C° 0.3 mm 1 mps 614 mmHg 90%
    20:00 +1°C° 0.1 mm 2 mps 614 mmHg 91%
    21:00 +1°C° 0.1 mm 2 mps 614 mmHg 91%
    22:00 +1°C° 0.1 mm 2 mps 615 mmHg 92%
    23:00 -1°C° 0 mm 2 mps 615 mmHg 92%

    2 April, Sunday

    Time Temperature Precipitation Wind Pressure Humidity
    00:00 -1°C° 0 mm 2 mps 615 mmHg 92%
    01:00 -1°C° 0 mm 2 mps 615 mmHg 92%
    02:00 -1°C° 0 mm 2 mps 615 mmHg 91%
    03:00 +1°C° 0 mm 1 mps 615 mmHg 90%
    04:00 0°C° 0 mm 1 mps 615 mmHg 89%
    05:00 +1°C° 0 mm 1 mps 615 mmHg 85%
    06:00 +2°C° 0 mm 1 mps 616 mmHg 81%
    07:00 +2°C° 0 mm 1 mps 616 mmHg 77%
    08:00 +4°C° 0 mm 1 mps 617 mmHg 70%
    09:00 +6°C° 0 mm 1 mps 618 mmHg 64%
    10:00 +8°C° 0 mm 1 mps 618 mmHg 57%
    11:00 +8°C° 0.2 mm 1 mps 618 mmHg 59%
    12:00 +8°C° 0.2 mm 1 mps 618 mmHg 61%
    13:00 +9°C° 0.2 mm 1 mps 618 mmHg 62%
    14:00 +8°C° 0.6 mm 1 mps 618 mmHg 68%
    15:00 +7°C° 0.6 mm 1 mps 617 mmHg 73%
    16:00 +7°C° 0.6 mm 1 mps 617 mmHg 78%
    17:00 +5°C° 0.8 mm 1 mps 617 mmHg 84%
    18:00 +4°C° 0.8 mm 1 mps 616 mmHg 90%
    19:00 +3°C° 0.8 mm 1 mps 616 mmHg 96%
    20:00 +3°C° 1 mm 1 mps 616 mmHg 96%
    21:00 +3°C° 1 mm 1 mps 616 mmHg 96%
    22:00 +2°C° 1 mm 1 mps 616 mmHg 97%
    23:00 +2°C° 0.8 mm 1 mps 616 mmHg 97%
    Show more